De Queen, AR

12:29 PM CST on January 18, 2020 (GMT -0600)
Helms Sevier County

Weather History for KDEQ - October, 2019

Change the Weather History Date:

Saturday, October 5, 2019

  Actual Average Record
Temperature  
Mean Temperature 75 °F 66 °F  
Max Temperature 89 °F 79 °F 94 °F (2002)
Min Temperature 61 °F 54 °F 36 °F (2010)
Degree Days  
Heating Degree Days 0 2  
Month to date heating degree days 0 10  
Since 1 July heating degree days 0 19  
Cooling Degree Days 10 3  
Month to date cooling degree days 63 19  
Year to date cooling degree days 2280 1884  
Growing Degree Days 25 (Base 50)    
Moisture  
Dew Point 63 °F    
Average Humidity 83    
Maximum Humidity 97    
Minimum Humidity 49    
Precipitation  
Precipitation 0.00 in 0.16 in 2.89 in (1998)
Month to date precipitation T 0.80  
Year to date precipitation 42.09 36.00  
Snow  
Snow 0.00 in - - ()
Month to date snowfall 0.0  
Since 1 July snowfall 0.0  
Since 1 September snowfall 0.0  
Snow Depth 0.00 in    
Sea Level Pressure  
Sea Level Pressure 30.00 in    
Wind  
Wind Speed 0 mph ()    
Max Wind Speed 8 mph    
Max Gust Speed 10 mph    
Visibility 4.6 miles    
Events Fog    
T = Trace of Precipitation, MM = Missing Value Source: Averaged Metar Reports

Daily Weather History Graph

Daily Weather History Graph

Search for Another Location

Airport or City:

Astronomy

Oct. 05, 2019 Rise Set
Actual Time 7:14 AM CDT 6:56 PM CDT
Civil Twilight 6:49 AM CDT 7:21 PM CDT
Nautical Twilight 6:20 AM CDT 7:50 PM CDT
Astronomical Twilight 5:51 AM CDT 8:19 PM CDT
Moon 2:26 PM CDT (10/5) No Moon Set
Length of Visible Light 12h 31m
Length of Day
11h 41m
Waxing Crescent, 50% of the Moon is Illuminated
Oct 5
Waxing Crescent
Oct 13
Full
Oct 21
Last Quarter
Oct 27
New
Nov 4
First Quarter

Hourly Weather History & Observations

Time (CDT) Temp. Heat Index Dew Point Humidity Pressure Visibility Wind Dir Wind Speed Gust Speed Precip Events Conditions
1:31 AM 66.0 °F - 64.0 °F 93% 30.06 in 1.8 mi Calm Calm - N/A   Clear
1:33 AM 66.0 °F - 64.0 °F 93% 30.06 in 1.0 mi Calm Calm - N/A   Mist
1:40 AM 64.9 °F - 63.0 °F 93% 30.06 in 0.5 mi Calm Calm - N/A Fog Fog
1:48 AM 64.4 °F - 62.6 °F 94% 30.06 in 1.2 mi Calm Calm - N/A   Partly Cloudy
1:53 AM 64.9 °F - 63.0 °F 93% 30.05 in 1.8 mi Calm Calm - N/A   Partly Cloudy
2:03 AM 66.0 °F - 64.0 °F 93% 30.06 in 3.0 mi Calm Calm - N/A   Clear
2:33 AM 64.9 °F - 63.0 °F 93% 30.05 in 1.8 mi Calm Calm - N/A   Clear
2:40 AM 66.0 °F - 63.0 °F 90% 30.05 in 3.0 mi Calm Calm - N/A   Clear
2:53 AM 64.9 °F - 63.0 °F 93% 30.04 in 2.0 mi Calm Calm - N/A   Clear
3:05 AM 64.0 °F - 62.1 °F 93% 30.05 in 3.0 mi Calm Calm - N/A   Clear
3:08 AM 64.0 °F - 62.1 °F 93% 30.05 in 1.8 mi Calm Calm - N/A   Clear
3:29 AM 64.0 °F - 62.1 °F 93% 30.04 in 3.0 mi Calm Calm - N/A   Clear
3:46 AM 64.0 °F - 62.1 °F 93% 30.04 in 1.8 mi Calm Calm - N/A   Clear
3:53 AM 63.0 °F - 61.0 °F 93% 30.03 in 1.8 mi Calm Calm - N/A   Clear
4:00 AM 64.0 °F - 62.1 °F 93% 30.04 in 1.2 mi Calm Calm - N/A   Partly Cloudy
4:06 AM 64.0 °F - 62.1 °F 93% 30.05 in 3.0 mi Calm Calm - N/A   Clear
4:18 AM 64.0 °F - 62.1 °F 93% 30.04 in 1.5 mi Calm Calm - N/A   Clear
4:38 AM 63.0 °F - 61.0 °F 93% 30.04 in 0.8 mi Calm Calm - N/A   Mist
4:46 AM 63.0 °F - 61.0 °F 93% 30.04 in 1.2 mi Calm Calm - N/A   Partly Cloudy
4:53 AM 63.0 °F - 61.0 °F 93% 30.03 in 1.2 mi Calm Calm - N/A   Partly Cloudy
4:55 AM 63.0 °F - 61.0 °F 93% 30.04 in 0.8 mi Calm Calm - N/A   Mist
5:14 AM 62.1 °F - 60.1 °F 93% 30.03 in 1.2 mi Calm Calm - N/A   Partly Cloudy
5:17 AM 62.1 °F - 60.1 °F 93% 30.04 in 3.0 mi Calm Calm - N/A   Partly Cloudy
5:53 AM 62.1 °F - 60.1 °F 93% 30.02 in 8.0 mi Calm Calm - N/A   Clear
6:53 AM 61.0 °F - 59.0 °F 93% 30.03 in 7.0 mi Calm Calm - N/A   Clear
7:53 AM 62.1 °F - 59.0 °F 90% 30.03 in 5.0 mi Calm Calm - N/A   Clear
8:53 AM 68.0 °F - 59.0 °F 73% 30.03 in 8.0 mi Calm Calm - N/A   Clear
9:53 AM 73.9 °F - 57.0 °F 55% 30.03 in 10.0 mi East 5.8 mph - N/A   Clear
10:53 AM 77.0 °F - 57.9 °F 52% 30.04 in 10.0 mi Calm Calm - N/A   Clear
11:53 AM 80.1 °F 81.1 °F 61.0 °F 52% 30.02 in 10.0 mi Variable 4.6 mph - N/A   Clear
12:53 PM 82.9 °F 84.0 °F 63.0 °F 51% 30.00 in 10.0 mi West 3.5 mph - N/A   Clear
1:53 PM 84.9 °F 86.1 °F 64.0 °F 49% 29.97 in 10.0 mi Variable 3.5 mph - N/A   Clear
2:53 PM 87.1 °F 89.2 °F 66.0 °F 49% 29.93 in 10.0 mi Calm Calm - N/A   Clear
3:53 PM 87.1 °F 89.9 °F 66.9 °F 51% 29.91 in 10.0 mi Calm Calm - N/A   Clear
4:53 PM 88.0 °F 90.7 °F 66.9 °F 49% 29.89 in 10.0 mi SSE 3.5 mph - N/A   Clear
5:53 PM 87.1 °F 90.6 °F 68.0 °F 53% 29.89 in 10.0 mi West 3.5 mph - N/A   Clear
6:53 PM 80.1 °F 83.8 °F 72.0 °F 76% 29.90 in 9.0 mi Calm Calm - N/A   Clear
7:53 PM 75.0 °F - 71.1 °F 87% 29.91 in 7.0 mi Calm Calm - N/A   Clear
8:53 PM 73.0 °F - 69.1 °F 87% 29.90 in 7.0 mi Calm Calm - N/A   Clear
9:24 PM 71.1 °F - 68.0 °F 90% 29.92 in 1.8 mi Calm Calm - N/A   Clear
9:31 PM 72.0 °F - 69.1 °F 91% 29.93 in 3.0 mi Calm Calm - N/A   Clear
9:53 PM 72.0 °F - 69.1 °F 91% 29.94 in 5.0 mi ESE 3.5 mph - N/A   Clear
10:53 PM 70.0 °F - 68.0 °F 93% 29.93 in 4.0 mi Calm Calm - N/A   Clear
11:53 PM 71.1 °F - 68.0 °F 90% 29.94 in 5.0 mi ESE 3.5 mph - N/A   Clear